This is the latest recevied weather packets stored in our database for station/object KD6VEX-1. If no packets are shown the sender has not sent any weather packets the latest 10 day(s).
| Time | Temp. | Humidity | Pressure | Rain* | Wind** | Luminosity | Snow |
|---|---|---|---|---|---|---|---|
| 1778185421 | 26.67° C | 50% | 1015.1 hPa | 0 mm | - | - | - |
| 1778185121 | 26.67° C | 49% | 1015.2 hPa | 0 mm | - | - | - |
| 1778184821 | 27.22° C | 48% | 1015.2 hPa | 0 mm | - | - | - |
| 1778184521 | 27.22° C | 50% | 1015.3 hPa | 0 mm | - | - | - |
| 1778183921 | 26.67° C | 48% | 1015.4 hPa | 0 mm | - | - | - |
| 1778183621 | 26.67° C | 49% | 1015.4 hPa | 0 mm | - | - | - |
| 1778183321 | 26.67° C | 50% | 1015.4 hPa | 0 mm | - | - | - |
| 1778183021 | 26.67° C | 50% | 1015.5 hPa | 0 mm | - | - | - |
| 1778182721 | 26.67° C | 51% | 1015.6 hPa | 0 mm | - | - | - |
| 1778182421 | 26.11° C | 50% | 1015.6 hPa | 0 mm | - | - | - |
| 1778182121 | 26.11° C | 51% | 1015.7 hPa | 0 mm | - | - | - |
| 1778181821 | 25.56° C | 51% | 1015.8 hPa | 0 mm | - | - | - |
| 1778181521 | 25.56° C | 52% | 1015.9 hPa | 0 mm | - | - | - |
| 1778180921 | 25° C | 51% | 1015.9 hPa | 0 mm | - | - | - |
| 1778180621 | 24.44° C | 53% | 1016 hPa | 0 mm | - | - | - |
| 1778180321 | 24.44° C | 53% | 1016 hPa | 0 mm | - | - | - |
| 1778180022 | 23.89° C | 53% | 1016.1 hPa | 0 mm | - | - | - |
| 1778179721 | 23.89° C | 55% | 1016.1 hPa | 0 mm | - | - | - |
| 1778179421 | 23.33° C | 56% | 1016.3 hPa | 0 mm | - | - | - |
| 1778179121 | 22.78° C | 57% | 1016.2 hPa | 0 mm | - | - | - |
| 1778178821 | 22.78° C | 57% | 1016.2 hPa | 0 mm | - | - | - |
| 1778178521 | 22.78° C | 59% | 1016.3 hPa | 0 mm | - | - | - |
| 1778178221 | 22.22° C | 59% | 1016.4 hPa | 0 mm | - | - | - |
| 1778177921 | 22.22° C | 61% | 1016.3 hPa | 0 mm | - | - | - |
| 1778177621 | 21.67° C | 62% | 1016.4 hPa | 0 mm | - | - | - |
* Rain latest hour (hover to see other rain measurements)
** Current wind speed in m/s (hover to see current wind gust speed)